Weather in Mosty Pravye

Belarus     53°25′36″N   24°37′42″E
temp.,
°C
wind,
m/s
gust,
m/s
humid.,
%
clouds,
%
prec.,
mm/h
press.,
hPa
HPBL,
m
17 april, sat
sat1700:00+6ene49945 0.1 1016183
03:00+5ene369413 0.1 1017104
06:00+6ne389290 0.0 1017173
09:00+8ene468151 0.0 1018285
12:00+13ene456656 0.3 10181129
15:00+13e576491 1.8 10181320
18:00+13e4760100 0.5 10181007
21:00+9se227999 0.6 101921
18 april, sun
sun1800:00+7e118169 0.0 102010
03:00+7nne3584100 0.0 102081
06:00+8n3693100 0.1 1019171
09:00+9ne488938 0.1 1019401
12:00+14ene466658 0.0 10191195
15:00+14ene4769100 0.1 1019766
18:00+12ene3675100 0.1 1019263
21:00+10e3783100 0.1 1021258
19 april, mon
mon1900:00+9ene3784100 0.0 1021268
03:00+9ne3680100 0.1 1021162
06:00+9ene4962100 0.0 1021238
09:00+8e610727 0.0 1022814
12:00+8e6870100 0.0 1021917
15:00+10ene5660100 0.0 10211543
18:00+10ene6763100 0.0 10211507
21:00+8ene3668100 0.0 1021262
20 april, tue
tue2000:00+7ene498496 0.1 1020365
03:00+7ene488968 0.3 1019352
06:00+4ne489631 0.0 1018213
09:00+7ene587343 0.0 1017816
12:00+7ne5775100 0.0 1017900
15:00+8ne4568100 0.3 10151141
18:00+9ne456999 0.4 1014975
21:00+7nne3579100 0.6 1014100
21 april, wed
wed2100:00+5nne238581 0.1 101343
03:00+3nnw33905 0.1 101242
06:00+2nw349344 0.0 101165
09:00+7nw477870 0.0 1011439
12:00+9wnw676569 0.2 10111280
15:00+11w566099 0.6 10101326
18:00+11wnw465781 0.3 10101326
21:00+8wsw337586 0.6 101143